Wind_Speed
16 15 14 12 11 10 9 8 7 6 6 5 4 3 3 2 2 2 2 2 2 3 4 5 5 5 6 7 7 7 8 8 8 9 9 9 9 9 9 10 10 9 9 9 9 9 10 10 10
17 16 15 14 12 10 10 9 8 7 6 5 5 4 4 3 3 3 3 4 4 5 5 6 6 7 7 8 8 9 9 9 10 10 10 10 11 11 11 11 11 11 10 10 11 11 10 10 10
19 18 17 16 14 13 13 11 10 8 7 6 6 5 5 5 5 4 4 5 6 6 7 7 8 8 9 9 10 10 10 11 11 11 11 12 12 13 12 12 12 12 12 11 12 12 11 11 11
20 19 18 17 17 17 15 13 12 10 9 8 7 7 7 6 6 5 6 6 7 8 8 9 9 10 10 11 11 11 12 12 12 13 13 14 14 14 14 13 13 13 13 13 12 13 13 13 12
21 20 19 18 18 17 15 14 13 12 11 10 9 8 8 7 7 7 7 8 8 9 9 10 10 11 11 12 13 13 13 13 13 14 15 15 15 15 15 14 14 14 14 14 14 14 14 14 13
22 21 20 19 19 17 16 15 15 13 12 11 10 9 8 8 8 8 8 8 9 10 10 11 11 11 12 13 13 14 14 14 15 16 16 16 16 16 16 16 16 16 16 16 16 15 15 15 15
22 22 21 20 19 18 17 16 16 14 12 11 11 10 10 10 9 9 9 9 10 11 12 12 12 13 14 14 14 15 16 17 18 18 17 17 17 17 17 17 17 17 17 17 17 17 17 16 16
23 22 22 21 20 19 17 17 16 14 14 13 12 11 11 10 10 10 10 10 11 13 13 13 13 14 15 16 17 17 18 18 19 18 18 18 19 19 19 19 19 19 19 19 19 18 18 18 17
23 23 22 21 21 19 17 16 15 15 14 14 13 12 11 11 12 12 12 12 13 14 14 15 16 17 17 18 18 19 19 19 19 19 19 20 20 20 20 20 20 20 20 20 20 20 19 19 19
24 23 23 22 21 19 18 17 16 15 14 14 13 13 13 13 12 13 13 13 14 15 16 17 18 19 19 19 19 20 20 20 21 20 20 21 21 21 21 21 21 21 21 21 21 21 20 21 21
24 24 23 22 21 20 19 18 17 17 15 14 14 14 14 14 14 14 14 15 15 16 17 18 19 20 20 20 20 21 21 21 21 21 22 22 22 22 22 22 22 22 22 22 22 22 22 22 23
23 23 23 22 21 21 20 18 18 17 16 15 15 15 15 15 15 14 14 15 16 17 18 19 19 20 21 20 20 21 21 21 21 21 22 23 23 24 23 23 23 23 23 23 23 24 24 24 24
22 22 22 22 21 21 20 19 18 17 15 15 15 15 15 15 15 15 16 16 18 19 20 20 20 21 21 21 21 21 21 21 22 22 22 22 23 24 24 24 24 23 23 23 24 24 25 25 25
20 20 21 21 21 20 20 20 18 18 17 16 16 16 15 16 15 16 16 17 18 19 19 20 20 21 21 21 21 21 21 21 23 23 23 23 23 24 25 25 25 24 24 24 25 25 25 26 26
19 19 20 20 20 19 19 19 18 17 16 16 16 16 16 17 16 15 16 17 18 19 20 21 20 21 21 21 22 22 22 22 22 23 23 24 24 24 24 25 25 25 24 24 25 25 25 26 27
18 18 18 18 18 18 18 19 17 16 16 16 16 16 17 17 18 17 18 19 19 19 19 19 20 20 20 21 22 22 22 22 23 23 24 24 24 25 25 25 26 26 26 26 26 25 26 26 27
15 14 16 17 17 17 17 17 18 17 16 16 16 17 18 19 19 18 18 19 20 19 19 20 20 20 21 22 23 24 24 23 24 24 25 25 26 26 26 27 27 27 27 27 26 26 26 27 27
14 14 15 16 16 16 16 17 17 17 17 17 18 19 19 19 20 20 20 20 21 21 21 21 21 21 22 23 24 24 24 24 24 25 26 27 27 27 27 28 29 29 29 28 27 28 28 28 28
14 14 14 15 15 15 15 16 17 18 18 19 19 20 20 21 21 21 22 22 22 21 22 21 21 22 22 23 23 24 24 25 26 26 27 28 29 29 29 29 30 30 30 29 28 29 29 29 28
13 13 14 15 15 15 16 16 18 19 19 19 20 20 21 21 22 22 21 21 21 22 22 22 22 23 24 24 24 25 25 26 27 28 28 29 30 31 31 31 31 30 30 30 30 29 30 30 30
11 12 13 14 15 16 16 17 19 19 20 20 20 21 22 22 21 21 22 22 22 22 22 22 22 23 24 25 25 25 26 27 29 29 28 29 29 30 31 31 31 31 30 30 30 30 30 30 30
11 13 14 14 14 15 16 15 18 19 18 19 20 21 22 22 23 23 23 23 23 23 23 23 23 24 25 26 26 26 27 28 28 28 27 28 29 30 30 31 31 31 31 30 30 30 30 29 30
12 12 13 14 15 15 16 16 16 18 18 19 20 21 22 23 23 23 23 23 23 23 22 22 23 24 25 25 26 27 27 28 28 29 29 29 30 29 30 30 30 30 30 30 30 30 29 29 28
11 10 11 12 13 13 15 16 16 18 19 20 21 22 22 23 23 23 23 23 23 23 22 23 24 24 24 25 26 27 28 28 29 29 28 28 29 29 29 29 29 29 29 29 29 29 28 29 28
10 10 9 10 11 12 16 17 17 18 19 19 20 21 21 22 22 23 23 23 23 24 24 24 24 24 25 26 27 27 27 28 28 28 28 28 28 29 28 29 28 28 28 28 27 27 27 27 28
11 10 10 12 13 14 17 17 17 17 18 18 19 20 21 21 21 22 22 23 23 24 24 24 25 26 26 27 27 28 27 27 26 27 26 27 26 26 26 26 26 26 26 25 25 25 25 25 26
12 13 13 14 15 15 16 17 17 17 18 18 19 20 21 21 22 22 23 23 23 23 24 25 26 27 27 28 28 27 26 24 25 25 24 25 25 25 24 24 24 23 23 24 24 24 24 23 23
14 15 15 14 15 16 16 17 18 19 19 19 20 20 21 21 22 22 23 24 24 24 24 25 26 27 27 27 26 26 24 23 23 23 23 23 23 22 22 22 21 21 21 21 22 22 22 22 21
16 16 16 16 17 16 16 17 19 20 19 19 20 20 20 21 22 22 23 23 24 24 24 25 26 26 26 25 23 23 22 22 22 22 22 22 21 20 20 20 19 19 19 19 19 19 20 20 19
16 16 17 17 17 18 18 18 19 19 19 19 20 20 20 21 21 22 22 22 22 23 24 25 24 24 23 23 21 21 21 21 20 20 19 19 19 19 19 18 17 17 17 17 17 17 17 17 16
Wind_Direction
211 211 211 211 212 209 211 212 206 198 190 186 190 197 195 208 226 249 267 278 290 287 294 299 298 297 295 297 297 297 297 298 299 301 302 304 304 306 308 308 308 309 310 311 309 309 307 304 300
214 214 214 213 210 212 222 218 216 210 209 209 218 229 233 238 246 254 273 279 283 283 287 292 293 294 293 295 295 293 294 294 295 297 299 300 300 300 301 301 300 301 302 302 303 303 302 299 296
216 216 215 214 212 210 222 218 218 218 221 223 231 241 248 254 255 264 273 277 283 284 288 294 295 295 294 295 294 293 294 295 293 294 296 296 297 297 297 296 294 295 296 297 298 298 296 293 291
216 217 217 216 217 220 222 222 223 221 227 234 245 251 255 266 265 272 277 278 283 287 292 294 294 294 295 295 294 292 293 293 292 293 294 293 294 294 293 293 291 292 292 293 294 295 294 291 287
217 217 217 217 219 223 223 224 224 226 236 244 250 259 264 270 271 271 280 282 284 286 289 293 291 293 295 294 293 291 291 290 292 293 292 292 291 291 291 291 291 291 290 289 289 290 289 288 285
217 217 216 218 222 223 224 224 226 230 240 245 254 264 270 272 270 273 279 282 283 284 288 292 290 291 290 289 291 291 291 290 292 293 292 290 289 289 290 291 292 291 289 287 285 286 285 284 284
216 216 215 218 223 223 225 226 228 232 239 247 254 262 269 272 274 275 278 280 279 281 286 289 289 288 286 287 290 291 291 292 293 292 291 290 288 288 289 289 290 290 289 288 285 283 281 281 280
215 216 216 218 222 226 227 228 230 234 242 251 254 261 272 275 272 273 276 278 279 280 281 282 284 287 286 285 287 291 291 291 292 291 290 291 290 289 288 289 289 289 290 289 286 282 279 277 277
213 214 216 217 221 225 227 231 234 238 245 253 260 270 277 280 277 275 277 278 279 280 277 278 282 286 286 288 289 291 291 291 291 290 290 291 291 290 289 290 289 289 288 288 286 281 278 276 275
211 212 215 217 220 223 226 232 236 240 246 253 260 268 275 277 277 278 279 279 278 279 279 281 283 284 287 287 288 289 288 288 289 289 289 290 291 290 290 289 287 286 285 285 284 280 277 276 276
210 212 215 217 220 223 227 233 235 240 245 255 263 269 276 278 276 275 277 279 279 280 282 282 282 282 285 285 287 287 288 289 288 287 287 289 292 291 290 290 287 285 284 284 282 279 276 274 275
210 212 213 216 220 224 228 232 237 243 248 255 264 271 272 275 276 275 278 278 277 280 280 279 279 279 282 283 286 290 289 288 288 287 287 290 292 292 291 290 289 287 285 283 282 280 276 274 274
207 210 212 216 222 226 230 234 240 246 252 259 265 269 273 278 282 279 277 277 278 279 280 281 280 279 281 283 285 288 287 286 285 286 288 289 290 290 290 290 289 288 287 287 285 282 280 276 275
205 208 213 219 224 230 235 239 247 253 259 264 268 272 276 282 283 282 282 282 281 283 282 281 282 283 281 283 285 285 285 285 285 286 286 288 289 289 288 287 286 285 285 286 284 283 281 279 277
206 210 216 222 226 232 238 245 252 255 260 266 270 274 280 282 283 283 285 285 285 284 283 283 284 284 281 282 283 283 283 284 285 285 285 285 286 287 287 287 285 285 284 284 284 282 281 279 277
209 212 221 225 231 238 242 249 253 258 264 269 272 277 283 285 285 287 287 286 285 285 287 284 285 286 284 282 281 280 280 283 286 286 286 285 285 285 284 285 284 284 283 283 282 282 281 279 277
213 217 226 233 237 242 247 250 255 259 265 271 276 280 284 287 288 290 290 289 287 287 287 288 289 288 286 284 282 281 280 283 286 285 285 285 285 286 285 284 284 283 282 281 281 280 280 279 278
216 222 232 243 247 247 248 252 257 263 270 274 277 280 284 285 286 287 288 289 289 288 290 291 290 289 289 288 286 283 283 284 286 285 285 284 284 285 284 284 283 281 281 279 279 279 279 279 278
224 232 239 247 249 251 255 259 263 268 272 274 276 279 284 284 282 285 287 287 288 290 291 290 290 290 290 290 288 287 286 286 286 286 286 285 284 283 282 282 282 281 280 279 279 279 278 277 277
230 237 244 250 254 257 260 265 271 273 274 276 278 278 280 284 283 284 287 287 288 291 290 289 290 290 288 288 289 288 287 287 287 286 286 285 284 283 283 281 281 280 280 279 280 280 279 277 275
237 239 244 254 259 261 265 271 272 273 273 275 277 278 280 283 284 284 287 289 290 291 291 290 290 290 289 289 289 288 289 289 289 289 287 285 284 285 284 282 281 280 280 280 279 279 279 277 274
243 243 251 258 261 265 266 269 272 273 274 275 276 277 278 279 281 284 287 288 288 290 290 291 293 294 294 293 291 291 291 290 291 291 290 288 286 285 285 285 283 281 280 280 279 279 278 277 274
245 251 257 261 263 265 268 268 272 275 277 279 278 278 278 279 281 283 285 287 288 288 289 289 292 293 293 291 290 291 290 291 293 291 289 289 288 286 285 286 284 282 280 280 280 279 277 276 274
253 260 266 270 272 275 273 271 276 280 281 282 279 278 280 281 282 284 285 285 286 288 289 288 288 290 291 291 291 291 292 292 292 292 291 290 289 288 287 285 285 283 281 282 280 278 277 276 275
257 263 276 283 280 278 278 278 279 281 282 282 281 282 282 282 283 284 284 285 286 288 289 289 288 290 292 294 295 293 291 292 292 293 292 291 290 291 291 287 286 285 284 283 282 280 278 277 276
259 259 261 268 272 275 284 285 282 283 284 283 284 285 284 284 285 285 284 285 287 288 289 288 289 293 294 295 295 293 293 293 293 294 294 293 294 294 292 291 290 288 286 285 283 283 281 279 279
261 264 264 270 276 278 280 285 286 284 285 284 285 287 286 285 285 284 284 285 287 287 287 288 289 292 294 296 296 296 294 294 294 295 296 297 297 297 296 294 293 292 290 287 286 283 280 280 279
264 268 271 272 275 278 283 288 289 288 288 288 288 290 289 287 285 285 285 285 286 286 288 289 290 291 294 296 296 295 294 294 295 297 297 298 299 299 299 298 298 297 293 290 287 284 281 281 279
269 269 271 272 271 275 280 282 286 291 291 290 289 290 290 288 288 288 287 288 288 288 289 289 290 291 293 295 295 295 294 293 295 297 298 301 300 301 302 301 301 300 297 295 290 287 284 282 281
270 272 273 276 279 280 280 284 287 290 292 291 291 291 292 292 292 290 289 288 289 289 290 289 289 290 291 293 294 296 295 293 295 298 300 302 302 303 305 306 304 303 301 299 296 292 289 285 282
Height
5904 5905 5908 5910 5913 5915 5916 5915 5916 5916 5916 5917 5917 5917 5917 5917 5917 5919 5916 5914 5914 5914 5913 5913 5912 5912 5912 5911 5911 5910 5909 5908 5908 5907 5906 5906 5905 5905 5904 5903 5903 5902 5901 5901 5900 5900 5899 5899 5898
5901 5903 5906 5909 5911 5914 5914 5913 5914 5915 5915 5915 5915 5915 5915 5915 5915 5915 5914 5913 5913 5912 5912 5911 5911 5911 5910 5910 5909 5908 5907 5907 5906 5905 5905 5904 5903 5903 5902 5901 5901 5900 5899 5899 5898 5898 5897 5896 5896
5898 5900 5904 5907 5909 5912 5912 5912 5912 5913 5913 5914 5914 5914 5914 5914 5913 5913 5913 5912 5912 5911 5910 5910 5909 5909 5908 5908 5907 5906 5906 5905 5904 5903 5903 5902 5901 5901 5900 5899 5898 5898 5897 5896 5896 5895 5895 5894 5893
5895 5898 5902 5905 5906 5907 5908 5910 5910 5911 5912 5912 5913 5913 5912 5912 5912 5912 5911 5910 5910 5909 5908 5908 5907 5907 5906 5906 5905 5904 5904 5903 5902 5901 5900 5900 5899 5898 5898 5897 5896 5895 5895 5894 5893 5893 5892 5891 5891
5892 5896 5899 5902 5903 5904 5906 5907 5908 5909 5910 5911 5911 5910 5910 5910 5910 5909 5909 5908 5908 5907 5906 5905 5905 5905 5904 5903 5903 5902 5901 5901 5900 5899 5898 5897 5896 5895 5895 5894 5893 5892 5892 5891 5891 5890 5889 5889 5888
5890 5893 5897 5899 5900 5902 5904 5905 5906 5908 5908 5908 5909 5908 5908 5908 5908 5907 5907 5906 5906 5905 5904 5903 5903 5902 5902 5901 5900 5900 5899 5898 5897 5896 5895 5894 5893 5892 5892 5891 5890 5889 5888 5888 5887 5887 5886 5885 5885
5887 5891 5894 5896 5897 5899 5901 5903 5904 5905 5906 5906 5907 5906 5906 5906 5906 5905 5905 5904 5904 5903 5902 5901 5901 5900 5900 5899 5898 5897 5896 5895 5894 5893 5892 5891 5890 5889 5888 5887 5886 5885 5885 5884 5884 5883 5882 5882 5881
5883 5888 5890 5893 5895 5897 5899 5900 5902 5903 5904 5904 5904 5904 5904 5904 5904 5903 5902 5902 5901 5901 5900 5899 5898 5898 5897 5896 5895 5894 5893 5892 5891 5890 5889 5887 5886 5885 5884 5883 5882 5881 5881 5880 5879 5879 5879 5878 5877
5880 5885 5887 5890 5892 5894 5896 5898 5899 5900 5901 5901 5901 5901 5902 5901 5901 5900 5900 5899 5899 5898 5897 5896 5896 5895 5894 5893 5892 5891 5890 5889 5888 5886 5885 5884 5883 5881 5880 5879 5878 5877 5876 5876 5875 5875 5874 5874 5873
5877 5882 5884 5887 5889 5891 5893 5895 5897 5898 5899 5899 5899 5899 5899 5899 5898 5898 5897 5897 5896 5896 5895 5894 5893 5892 5891 5889 5888 5887 5886 5885 5884 5883 5881 5880 5879 5877 5876 5875 5874 5873 5872 5871 5870 5870 5870 5869 5869
5874 5878 5880 5883 5886 5889 5891 5893 5895 5896 5896 5897 5897 5897 5897 5896 5895 5895 5895 5894 5893 5893 5892 5891 5890 5888 5887 5886 5885 5884 5883 5881 5880 5879 5877 5876 5875 5873 5872 5870 5869 5868 5867 5866 5865 5865 5864 5864 5864
5871 5875 5878 5881 5884 5886 5888 5890 5892 5893 5894 5894 5894 5894 5894 5893 5893 5892 5892 5890 5890 5889 5888 5887 5886 5884 5883 5882 5881 5880 5878 5877 5876 5875 5873 5872 5871 5869 5867 5866 5864 5863 5862 5861 5860 5859 5859 5858 5858
5869 5873 5876 5879 5882 5884 5886 5888 5889 5890 5891 5891 5891 5891 5891 5891 5890 5889 5888 5887 5887 5886 5884 5883 5882 5881 5879 5878 5877 5876 5874 5873 5871 5870 5869 5867 5866 5865 5863 5861 5860 5858 5857 5856 5855 5854 5853 5853 5853
5868 5871 5874 5877 5879 5881 5884 5885 5887 5887 5888 5889 5889 5889 5888 5887 5886 5885 5885 5884 5883 5882 5880 5879 5878 5877 5875 5874 5873 5871 5870 5868 5867 5866 5864 5863 5861 5860 5858 5857 5855 5853 5852 5851 5850 5849 5848 5847 5847
5866 5870 5873 5875 5878 5880 5882 5883 5884 5885 5886 5886 5886 5886 5885 5884 5883 5882 5881 5880 5879 5878 5876 5874 5873 5872 5870 5869 5868 5867 5865 5864 5862 5861 5860 5858 5856 5855 5853 5851 5850 5849 5847 5846 5844 5843 5842 5841 5841
5866 5869 5872 5873 5876 5878 5881 5881 5882 5882 5883 5883 5883 5882 5881 5880 5879 5879 5878 5876 5875 5874 5872 5869 5869 5867 5866 5864 5863 5862 5860 5859 5857 5856 5854 5853 5851 5849 5848 5846 5844 5843 5841 5840 5839 5838 5837 5836 5835
5866 5869 5870 5872 5874 5875 5878 5878 5879 5879 5880 5880 5879 5879 5878 5876 5876 5874 5873 5872 5870 5869 5868 5866 5864 5863 5861 5859 5858 5857 5855 5854 5852 5850 5849 5847 5845 5843 5841 5840 5839 5837 5836 5834 5833 5832 5830 5829 5828
5866 5868 5869 5870 5872 5873 5874 5875 5875 5876 5876 5876 5876 5875 5874 5873 5871 5870 5869 5867 5866 5864 5863 5861 5860 5858 5856 5854 5853 5851 5850 5848 5846 5844 5842 5840 5839 5837 5835 5834 5832 5830 5829 5827 5826 5825 5823 5822 5821
5864 5866 5868 5869 5869 5871 5871 5872 5872 5873 5873 5872 5872 5871 5869 5868 5867 5866 5864 5863 5862 5860 5858 5857 5855 5853 5851 5849 5848 5846 5844 5842 5840 5838 5836 5834 5832 5830 5829 5827 5825 5823 5821 5820 5819 5818 5816 5815 5814
5863 5865 5866 5866 5867 5868 5868 5869 5869 5869 5869 5868 5867 5866 5865 5864 5862 5861 5859 5858 5857 5855 5853 5852 5849 5847 5845 5844 5842 5840 5838 5836 5834 5831 5828 5826 5824 5823 5821 5820 5818 5816 5814 5813 5812 5810 5809 5807 5806
5861 5863 5863 5864 5864 5865 5866 5867 5866 5865 5865 5864 5863 5862 5861 5859 5858 5856 5855 5854 5852 5850 5849 5846 5844 5842 5840 5839 5836 5834 5832 5830 5827 5824 5821 5819 5817 5815 5814 5812 5810 5808 5806 5805 5804 5802 5801 5800 5799
5859 5860 5861 5861 5862 5863 5863 5864 5863 5861 5860 5859 5858 5857 5856 5855 5853 5852 5850 5849 5847 5845 5843 5841 5839 5837 5835 5834 5831 5829 5826 5823 5820 5817 5815 5812 5810 5807 5805 5804 5802 5800 5798 5797 5795 5794 5793 5792 5791
5857 5857 5858 5858 5859 5860 5859 5860 5860 5857 5856 5855 5854 5852 5851 5849 5848 5847 5845 5843 5841 5839 5837 5836 5834 5832 5830 5828 5825 5822 5819 5817 5814 5811 5808 5805 5802 5799 5797 5796 5793 5792 5790 5788 5787 5786 5785 5783 5782
5854 5855 5855 5855 5856 5857 5856 5856 5856 5853 5852 5850 5848 5847 5845 5844 5842 5841 5840 5838 5836 5834 5832 5830 5829 5827 5824 5822 5819 5816 5813 5810 5807 5804 5801 5798 5795 5793 5790 5788 5786 5784 5782 5780 5779 5777 5776 5775 5774
5852 5854 5855 5855 5855 5856 5852 5851 5851 5848 5847 5845 5843 5842 5840 5839 5837 5836 5834 5832 5830 5829 5827 5825 5823 5821 5819 5816 5812 5809 5806 5803 5800 5797 5794 5791 5788 5785 5782 5780 5778 5776 5774 5772 5771 5770 5768 5767 5766
5850 5851 5854 5854 5854 5852 5848 5847 5846 5844 5842 5840 5838 5837 5835 5833 5832 5830 5828 5827 5825 5823 5821 5819 5817 5815 5812 5809 5806 5803 5799 5796 5793 5791 5787 5784 5781 5778 5775 5772 5770 5768 5767 5765 5764 5763 5761 5760 5759
5847 5848 5848 5848 5847 5847 5846 5843 5841 5839 5837 5836 5834 5832 5830 5828 5826 5825 5823 5821 5819 5817 5815 5813 5811 5809 5806 5803 5799 5795 5792 5790 5787 5784 5781 5779 5775 5772 5769 5766 5764 5762 5760 5759 5758 5756 5755 5753 5752
5844 5844 5844 5844 5843 5843 5842 5840 5838 5834 5833 5831 5829 5827 5825 5823 5821 5819 5817 5815 5813 5811 5809 5807 5805 5802 5799 5796 5792 5789 5786 5784 5781 5779 5776 5773 5770 5767 5764 5761 5759 5756 5755 5753 5751 5750 5748 5747 5745
5841 5840 5839 5839 5839 5838 5838 5838 5833 5830 5828 5826 5824 5822 5820 5817 5815 5813 5811 5809 5807 5805 5803 5801 5798 5795 5793 5790 5786 5784 5781 5778 5776 5773 5771 5768 5765 5763 5760 5757 5754 5752 5749 5747 5746 5744 5742 5741 5739
5836 5835 5835 5835 5834 5833 5832 5834 5827 5825 5823 5821 5819 5817 5814 5812 5810 5807 5805 5803 5801 5799 5797 5794 5792 5789 5786 5784 5781 5779 5776 5773 5771 5769 5766 5763 5761 5758 5755 5752 5750 5748 5745 5743 5741 5738 5737 5735 5734